Kaltag, AK

9:23 AM AKDT on July 20, 2017 (GMT -0800)
Kaltag

Weather History for PAKV - November, 2012

Change the Weather History Date:

Sunday, November 11, 2012

  Actual Average (PAGA) Record (PAGA)
Temperature  
Mean Temperature 4 °F -  
Max Temperature 16 °F 15 °F 38 °F (1965)
Min Temperature -9 °F 3 °F -31 °F (1956)
Degree Days  
Heating Degree Days 62    
Moisture  
Dew Point -1 °F    
Average Humidity 74    
Maximum Humidity 88    
Minimum Humidity 59    
Precipitation  
Precipitation 0.00 in - - ()
Sea Level Pressure  
Sea Level Pressure 29.99 in    
Wind  
Wind Speed - (North)    
Max Wind Speed -    
Max Gust Speed -    
Visibility 10 miles    
Events      
Averages and records for this station are not official NWS values.
T = Trace of Precipitation, MM = Missing Value Source: NWS Daily Summary

Daily Weather History Graph

Daily Weather History Graph

Search for Another Location

Airport or City:

Trip Planner

Search our weather history database for the weather conditions in past years. The results will help you decide how hot, cold, wet, or windy it might be!

Date:

Astronomy

Nov. 11, 2012 Rise Set
Actual Time 9:54 AM AKST 4:42 PM AKST
Civil Twilight 8:55 AM AKST 5:41 PM AKST
Nautical Twilight 7:55 AM AKST 6:41 PM AKST
Astronomical Twilight 6:59 AM AKST 7:37 PM AKST
Moon 6:39 AM AKST (11/11) 3:47 PM AKST (11/11)
Length of Visible Light 8h 45m
Length of Day
6h 48m
Waning Crescent, 6% of the Moon is Illuminated
Nov 11
Waning Crescent
Nov 13
New
Nov 20
First Quarter
Nov 28
Full
Dec 6
Last Quarter

Hourly Weather History & Observations

Time (AKST) Temp. Dew Point Humidity Pressure Visibility Wind Dir Wind Speed Gust Speed Precip Events Conditions
12:53 AM 16.0 °F 7.0 °F 68% 29.85 in 10.0 mi North - - N/A   Overcast
1:53 AM 15.1 °F 3.0 °F 59% 29.86 in 10.0 mi North - - N/A   Overcast
3:53 AM 14.0 °F 6.1 °F 71% 29.87 in 10.0 mi North - - N/A   Overcast
5:53 AM 14.0 °F 5.0 °F 67% 29.89 in 10.0 mi North - - N/A   Overcast
6:43 AM 12.2 °F 3.2 °F 67% 29.88 in 10.0 mi North - - N/A   Overcast
6:53 AM 12.9 °F 3.9 °F 67% 29.90 in 10.0 mi North - - N/A   Overcast
7:53 AM 10.0 °F 1.9 °F 70% 29.91 in 10.0 mi North - - N/A   Mostly Cloudy
8:01 AM 10.4 °F 3.2 °F 73% 29.90 in 10.0 mi North - - N/A   Mostly Cloudy
8:53 AM 12.0 °F 5.0 °F 73% 29.93 in 10.0 mi North - - N/A   Overcast
9:53 AM 12.0 °F 3.9 °F 70% 29.93 in 10.0 mi North - - N/A   Overcast
10:53 AM 12.0 °F 5.0 °F 73% 29.96 in 10.0 mi North - - N/A   Overcast
11:34 AM 10.4 °F 3.2 °F 73% 29.96 in 10.0 mi North - - N/A   Scattered Clouds
11:53 AM 10.0 °F 3.0 °F 73% 29.98 in 10.0 mi North - - N/A   Clear
12:53 PM 8.1 °F 1.9 °F 76% 30.00 in 10.0 mi North - - N/A   Clear
1:53 PM 8.1 °F 1.0 °F 73% 30.01 in 10.0 mi North - - N/A   Clear
2:53 PM 8.1 °F 1.0 °F 73% 30.01 in 10.0 mi North - - N/A   Clear
3:53 PM 5.0 °F -0.0 °F 80% 30.03 in 10.0 mi North - - N/A   Clear
4:53 PM -0.0 °F -2.9 °F 88% 30.05 in 10.0 mi North - - N/A   Clear
5:53 PM 3.0 °F -0.9 °F 84% 30.07 in 10.0 mi North - - N/A   Clear
6:53 PM -4.0 °F -9.0 °F 79% 30.08 in 10.0 mi North - - N/A   Clear
7:53 PM -7.1 °F -11.9 °F 79% 30.10 in 10.0 mi North - - N/A   Clear
8:53 PM -7.1 °F -11.9 °F 79% 30.11 in 10.0 mi North - - N/A   Clear
9:53 PM -9.0 °F -13.0 °F 83% 30.14 in 10.0 mi North - - N/A   Clear
10:53 PM -9.0 °F -14.1 °F 79% 30.16 in 10.0 mi North - - N/A   Clear
11:53 PM -9.0 °F -14.1 °F 79% 30.18 in 10.0 mi North - - N/A   Clear